Date,TemperatureHighF,TemperatureAvgF,TemperatureLowF,DewpointHighF,DewpointAvgF,DewpointLowF,HumidityHigh,HumidityAvg,HumidityLow,PressureMaxIn,PressureMinIn,WindSpeedMaxMPH,WindSpeedAvgMPH,GustSpeedMaxMPH,PrecipitationSumIn
2013-5-1,83.3,70.4,54.4,58.8,55.5,50.5,89,61,39,30.12,29.98,12,1,12,0.00
2013-5-2,77.8,69.2,61.0,58.0,55.6,53.3,81,63,46,30.14,30.02,13,2,14,0.00
2013-5-3,76.6,69.3,62.0,60.7,55.4,42.4,78,62,41,30.03,29.88,17,2,17,0.00
2013-5-4,71.5,65.0,58.7,53.4,45.0,38.5,82,50,31,29.96,29.90,14,2,15,0.00
2013-5-5,68.3,60.4,53.9,54.3,50.0,46.7,85,69,47,29.96,29.91,14,1,15,0.00
2013-5-6,70.3,62.4,55.0,55.9,51.2,45.3,84,67,53,29.95,29.89,13,1,14,0.00
2013-5-7,75.5,67.0,56.5,58.0,55.8,53.7,93,69,49,29.97,29.90,11,1,11,0.00
2013-5-8,80.0,67.4,52.0,58.4,54.1,50.1,97,66,37,29.98,29.91,9,0,9,0.00
2013-5-9,80.1,64.6,52.7,59.6,55.6,49.1,97,76,35,29.95,29.83,15,1,15,0.23
2013-5-10,67.5,61.1,48.7,62.2,57.5,45.3,97,88,75,29.86,29.75,14,2,14,0.19
2013-5-11,60.9,48.7,42.8,54.2,44.4,37.0,96,85,68,29.99,29.80,26,2,27,0.01
2013-5-12,53.7,45.4,36.6,37.1,33.1,27.8,94,65,38,30.11,29.99,20,2,20,0.00
2013-5-13,62.8,52.1,35.2,37.3,31.6,24.9,91,51,24,30.17,30.08,13,1,14,0.00
2013-5-14,84.5,64.4,48.5,61.8,46.4,31.2,66,52,41,30.09,29.73,22,3,24,0.00
2013-5-15,85.0,78.0,70.4,61.1,58.1,54.0,68,51,37,29.78,29.70,19,3,21,0.00
2013-5-16,81.5,70.7,58.5,62.1,54.7,44.7,96,61,28,29.92,29.75,7,0,7,0.03
2013-5-17,80.3,65.0,55.6,67.7,60.2,53.3,97,85,56,30.02,29.91,18,1,18,0.24
2013-5-18,78.0,68.2,57.5,68.1,60.7,51.1,96,78,61,30.05,29.93,8,0,8,0.01
2013-5-19,84.1,74.8,59.4,67.8,64.1,54.3,91,70,54,29.95,29.80,12,1,12,0.00
2013-5-20,85.1,77.8,69.9,70.7,68.0,65.6,94,73,55,29.87,29.75,20,4,20,0.00
2013-5-21,84.6,74.7,64.6,68.4,63.6,60.0,92,70,44,29.80,29.68,19,4,23,0.02
2013-5-22,75.6,69.6,62.3,64.3,61.6,54.1,93,76,55,29.72,29.63,22,4,23,0.03
2013-5-23,64.4,58.3,49.4,59.6,54.6,46.3,94,87,75,30.13,29.71,17,2,17,0.04
2013-5-24,65.9,53.8,43.3,46.7,41.5,35.4,94,67,34,30.34,30.12,14,1,14,0.00
2013-5-25,64.4,55.4,42.1,44.9,41.5,38.7,89,62,41,30.36,30.21,9,0,10,0.00
2013-5-26,70.1,61.3,44.3,52.5,44.6,39.2,90,56,39,30.28,30.14,11,1,13,0.00
2013-5-27,67.5,61.2,51.6,65.7,57.4,47.3,97,88,60,30.16,29.85,14,1,16,1.39
2013-5-28,80.4,72.3,62.3,69.1,65.9,61.4,98,81,67,29.90,29.82,22,4,25,0.04
2013-5-29,85.0,77.1,69.5,68.5,63.9,60.8,78,65,48,29.97,29.87,17,4,17,0.00
2013-5-30,86.3,78.2,68.2,69.4,66.5,62.0,86,68,53,30.01,29.88,20,4,21,0.00
2013-5-31,75.7,71.9,67.0,69.8,67.3,63.3,95,85,75,29.94,29.81,15,3,15,0.50